Date,TemperatureHighF,TemperatureAvgF,TemperatureLowF,DewpointHighF,DewpointAvgF,DewpointLowF,HumidityHigh,HumidityAvg,HumidityLow,PressureMaxIn,PressureMinIn,WindSpeedMaxMPH,WindSpeedAvgMPH,GustSpeedMaxMPH,PrecipitationSumIn
2013-8-1,87.7,79.6,75.7,74.0,69.3,57.0,79,71,50,30.07,29.98,9,2,11,0.01
2013-8-2,90.9,81.9,75.0,76.0,70.9,61.0,79,70,58,30.05,29.96,6,0,10,0.00
2013-8-3,87.4,80.9,75.5,77.0,70.9,60.0,78,72,55,30.10,30.02,15,5,22,0.10
2013-8-4,86.0,80.8,76.1,77.0,69.9,60.0,79,70,57,30.10,29.99,12,5,20,0.19
2013-8-5,88.2,81.4,75.5,78.0,69.1,57.0,78,67,52,30.03,29.91,16,4,21,0.02
2013-8-6,88.3,80.3,74.2,78.0,69.2,54.0,78,69,48,30.00,29.91,11,1,14,0.00
2013-8-7,89.5,81.3,76.3,77.0,68.0,55.0,78,65,46,30.00,29.93,9,1,12,0.00
2013-8-8,88.9,82.3,77.6,76.0,70.3,60.0,79,67,54,30.06,29.97,22,4,31,0.00
2013-8-9,87.6,79.7,75.4,77.0,65.7,54.0,79,63,47,30.09,30.00,8,2,17,0.00
2013-8-10,90.6,82.2,74.6,78.0,70.9,55.0,78,69,49,30.15,30.05,10,2,15,0.00
2013-8-11,92.3,83.4,78.3,77.0,71.7,63.0,78,68,51,30.18,30.07,6,2,13,0.00
2013-8-12,92.2,84.4,77.2,78.0,74.0,63.0,78,71,58,30.15,30.00,9,2,14,0.00
2013-8-13,91.9,83.8,79.2,76.0,73.6,69.0,78,72,55,30.07,29.94,14,3,15,0.00
2013-8-14,90.6,82.7,78.9,77.0,73.7,68.0,78,74,62,30.03,29.90,20,2,26,0.00
2013-8-15,90.2,83.0,79.2,76.0,73.4,71.0,79,73,57,30.05,29.93,11,2,19,0.00
2013-8-16,88.5,82.9,79.1,77.0,73.8,70.0,79,74,60,30.08,29.98,11,4,14,0.00
2013-8-17,90.2,80.6,74.3,77.0,68.5,53.0,79,67,48,30.12,29.99,25,2,33,0.00
2013-8-18,88.4,80.3,74.2,77.0,65.4,53.0,78,62,45,30.12,30.03,15,3,22,0.02
2013-8-19,87.8,80.0,74.2,77.0,66.1,51.0,78,63,44,30.11,29.99,11,1,19,0.01
2013-8-20,90.6,82.2,75.9,76.0,68.7,53.0,78,64,44,30.12,30.00,12,2,16,0.00
2013-8-21,88.5,78.0,73.1,77.0,60.6,52.0,78,56,43,30.14,30.07,10,1,17,0.03
2013-8-22,86.9,78.1,73.2,78.0,58.5,50.0,78,52,42,30.12,30.02,9,0,11,0.02
2013-8-23,86.5,76.3,70.2,78.0,54.8,47.0,78,48,41,30.06,29.98,16,0,26,0.14
2013-8-24,87.7,77.8,72.5,78.0,59.7,47.0,78,55,40,30.15,30.03,14,1,17,0.02
2013-8-25,85.7,78.0,73.7,75.0,61.5,47.0,78,59,39,30.19,30.11,1,0,9,0.00
2013-8-26,87.0,78.6,73.2,76.0,63.3,47.0,78,61,38,30.17,30.05,6,0,17,0.00
2013-8-27,86.4,78.8,72.4,74.0,62.5,46.0,78,59,39,30.11,30.01,10,1,17,0.01
2013-8-28,89.5,79.9,72.2,72.0,68.6,59.0,79,69,53,30.09,29.98,8,1,13,0.00
2013-8-29,89.6,82.8,75.3,75.0,71.9,66.0,78,70,54,30.05,29.93,9,3,12,0.00
2013-8-30,91.3,82.5,75.6,76.0,71.8,65.0,78,70,53,30.01,29.88,8,2,16,0.01
2013-8-31,87.3,80.6,75.0,77.0,70.9,64.0,79,72,62,29.99,29.89,18,2,26,0.05